This is the latest recevied weather packets stored in our database for station/object KA1BMF-13. If no packets are shown the sender has not sent any weather packets the latest 10 day(s).
| Time | Temp. | Humidity | Pressure | Rain* | Wind** | Luminosity | Snow |
|---|---|---|---|---|---|---|---|
| 1788104119 | 25.56° C | 55% | 1020.4 hPa | 0 mm | - | 701 W/m² | - |
| 1788103519 | 25.56° C | 57% | 1020.5 hPa | 0 mm | - | 689 W/m² | - |
| 1788102919 | 25° C | 57% | 1020.7 hPa | 0 mm | - | 829 W/m² | - |
| 1788102316 | 25° C | 62% | 1020.8 hPa | 0 mm | - | 795 W/m² | - |
| 1788101716 | 24.44° C | 63% | 1020.8 hPa | 0 mm | - | 687 W/m² | - |
| 1788101119 | 24.44° C | 64% | 1020.9 hPa | 0 mm | - | 625 W/m² | - |
| 1788100520 | 23.89° C | 64% | 1020.9 hPa | 0 mm | - | 500 W/m² | - |
| 1788099917 | 23.89° C | 63% | 1021 hPa | 0 mm | - | 629 W/m² | - |
| 1788099317 | 23.89° C | 63% | 1021.1 hPa | 0 mm | - | 615 W/m² | - |
| 1788098717 | 23.89° C | 64% | 1021.2 hPa | 0 mm | - | 558 W/m² | - |
| 1788098120 | 22.78° C | 70% | 1021.2 hPa | 0 mm | - | 573 W/m² | - |
| 1788097517 | 22.22° C | 71% | 1021.2 hPa | 0 mm | - | 539 W/m² | - |
| 1788096917 | 21.67° C | 73% | 1021.2 hPa | 0 mm | - | 475 W/m² | - |
| 1788096318 | 21.11° C | 75% | 1021.4 hPa | 0 mm | - | 383 W/m² | - |
| 1788095718 | 20.56° C | 77% | 1021.5 hPa | 0 mm | - | 304 W/m² | - |
| 1788095118 | 19.44° C | 79% | 1021.6 hPa | 0 mm | - | 219 W/m² | - |
| 1788094518 | 18.33° C | 81% | 1021.6 hPa | 0 mm | - | 107 W/m² | - |
| 1788093919 | 17.22° C | 89% | 1021.6 hPa | 0 mm | - | 75 W/m² | - |
| 1788093318 | 17.22° C | 92% | 1021.6 hPa | 0 mm | - | 79 W/m² | - |
| 1788092719 | 16.67° C | 92% | 1021.7 hPa | 0 mm | - | 76 W/m² | - |
| 1788092116 | 16.67° C | 93% | 1021.8 hPa | 0 mm | - | 58 W/m² | - |
| 1788091519 | 16.11° C | 94% | 1021.9 hPa | 0 mm | - | 74 W/m² | - |
| 1788090920 | 15.56° C | 95% | 1022 hPa | 0 mm | - | 103 W/m² | - |
| 1788090319 | 15.56° C | 95% | 1021.8 hPa | 0 mm | - | 69 W/m² | - |
| 1788089717 | 15° C | 95% | 1021.8 hPa | 0 mm | - | 72 W/m² | - |
* Rain latest hour (hover to see other rain measurements)
** Current wind speed in m/s (hover to see current wind gust speed)